This is the latest recevied weather packets stored in our database for station/object KD8BMB. If no packets are shown the sender has not sent any weather packets the latest 10 day(s).
| Time | Temp. | Humidity | Pressure | Rain* | Wind** | Luminosity | Snow |
|---|---|---|---|---|---|---|---|
| 1778118956 | 9.44° C | 55% | 1012.3 hPa | 0 mm | - | 0 W/m² | - |
| 1778118647 | 9.44° C | 56% | 1012.3 hPa | 0 mm | - | 0 W/m² | - |
| 1778118343 | 9.44° C | 57% | 1012.2 hPa | 0 mm | - | 0 W/m² | - |
| 1778118033 | 9.44° C | 56% | 1012.1 hPa | 0 mm | - | 0 W/m² | - |
| 1778117730 | 9.44° C | 57% | 1012.3 hPa | 0 mm | - | 0 W/m² | - |
| 1778117428 | 9.44° C | 57% | 1012.1 hPa | 0 mm | - | 0 W/m² | - |
| 1778117125 | 9.44° C | 57% | 1012 hPa | 0 mm | - | 0 W/m² | - |
| 1778116821 | 9.44° C | 57% | 1012 hPa | 0 mm | - | 0 W/m² | - |
| 1778116519 | 9.44° C | 57% | 1012.1 hPa | 0 mm | - | 0 W/m² | - |
| 1778116214 | 9.44° C | 58% | 1012 hPa | 0 mm | - | 0 W/m² | - |
| 1778115909 | 9.44° C | 58% | 1012 hPa | 0 mm | - | 0 W/m² | - |
| 1778115606 | 9.44° C | 57% | 1011.9 hPa | 0 mm | - | 0 W/m² | - |
| 1778115303 | 10° C | 57% | 1012 hPa | 0 mm | - | 0 W/m² | - |
| 1778114999 | 10° C | 57% | 1011.8 hPa | 0 mm | - | 0 W/m² | - |
| 1778114696 | 10° C | 55% | 1012 hPa | 0 mm | - | 0 W/m² | - |
| 1778114394 | 10° C | 56% | 1011.9 hPa | 0 mm | - | 0 W/m² | - |
| 1778114089 | 10° C | 55% | 1012 hPa | 0 mm | - | 0 W/m² | - |
| 1778113784 | 10° C | 56% | 1012 hPa | 0 mm | - | 1 W/m² | - |
| 1778113481 | 10° C | 55% | 1011.9 hPa | 0 mm | - | 2 W/m² | - |
| 1778113178 | 10° C | 52% | 1011.9 hPa | 0 mm | - | 3 W/m² | - |
| 1778112874 | 10° C | 52% | 1011.9 hPa | 0 mm | - | 6 W/m² | - |
| 1778112572 | 10.56° C | 53% | 1011.8 hPa | 0 mm | - | 12 W/m² | - |
| 1778112267 | 10.56° C | 52% | 1011.6 hPa | 0 mm | - | 16 W/m² | - |
| 1778111963 | 10.56° C | 51% | 1011.8 hPa | 0 mm | - | 10 W/m² | - |
| 1778111660 | 10.56° C | 51% | 1011.7 hPa | 0 mm | - | 7 W/m² | - |
* Rain latest hour (hover to see other rain measurements)
** Current wind speed in m/s (hover to see current wind gust speed)